STARLINK-32809, 62849

Orbit data source: Space-Track

STARLINK-32809, 62849 is a payload satellite owned by SpaceX/Seattle (US) in LEO that was launched on Mon, 27 Jan 2025 UTC via an FALCON 9 launch vehicle from the Air Force Eastern Test Range (AFETR). Payload-class satellites include a variety of spacecraft equipped with specific instruments for various scientific and technological missions. These include communications satellites like Starlink; space stations such as the ISS; scientific satellites like the Hubble; Earth observation satellites from companies like Planet Labs, Umbra, and HawkEye 360; GPS; miniature CubeSats for education and research; and military/defense satellites.

Loading next visibility...
Identifier
62849, 2025-019W
Orbit
LEO
Last TLE update
21 hours ago
Origin
Manufacturer
SpaceX/Seattle
Mission
Operational Commercial Communications
Bus & Motor
STARLINK V2M, Unknown motor
Mass
730 kg wet, ~700 kg dry
Launch date (UTC)
2025-01-27 (3 months ago)
Launch vehicle
FALCON 9
Launch site
Air Force Eastern Test Range (AFETR)
Object type
Payload
Rocket body
Debris
Shape & HBR
Box + 2 Pan, 29 m
Radar Cross Section
33.884 m², Large (>1 m²)

Expand to show TLE details & history

TLE from 21 hours ago
0 STARLINK-32809
1 62849U 25019W   25128.39505758  .00002509  00000-0  10062-3 0  9994
2 62849  43.0045  12.8127 0001103 247.3446 112.7289 15.27597794 15566
Epoch: 2025-05-08T09:28Z
Definitive object data (Epoch: 2025-05-08T09:28:52.974Z)
Latitude
-0.00005°
Longitude
4.12575°
Altitude
483.064 km
Speed
7.626 km/s
True Right ascension
00h 51m 15s
True Declination
0° 00' 00"
Sunlit
Object was in daylight at TLE epoch
Visualization TLE readout
Latitude
42.77891°
Longitude
98.59489°
Altitude
486.742 km
Speed
7.627 km/s
Apparent Right ascension
04h 50m 28s
Apparent Declination
4° 00' 36"
Sunlit
Object is in daylight
Visualization observer readout
Local Sidereal Time
14:27:01
Azimuth
314.405° NW
Elevation
-35.113°
Doppler factor
1
Orbital elements
Apogee altitude
485.697 km
Perigee altitude
484.183 km
Semi-major axis
6,863.077 km
Eccentricity
0.0001103
Inclination
43.0045°
RAAN
12.8127°
Arg. of periapsis
247.3446°
True anomaly
112.74056°
Mean anomaly
112.7289°
Eccentric anomaly
112.73473°
Mean motion
3.81738 °/min
BSTAR
0.00010062
Orbital period
94.31 mins
Loading maneuver chart data...
Loading SW <> Apogee altitude chart data...
Loading historical data...
Loading historical data...
Loading historical data...
Loading historical data...
Loading historical data...
Loading historical data...
Loading historical data...

STARLINK-32809 Visibility forecast

Observer location: undefined°, undefined°

Span
Click to sort rows by Start time (UTC) header in descending order
Start Az.
Max El. time (UTC)
Max El. Az.
Max El.
End time (UTC)
End Az.
5 mins2025-05-09 18:37:12.924Z193.26° SSW2025-05-09 18:40:12.924Z135.369° SSE19.955°2025-05-09 18:42:12.924Z99.364° ESE
5 mins2025-05-09 20:16:12.924Z249.316° W2025-05-09 20:18:12.924Z238.914° WSW44.416°2025-05-09 20:21:12.924Z72.279° E
5 mins2025-05-09 21:55:12.924Z288.219° WNW2025-05-09 21:57:12.924Z336.592° NNW37.16°2025-05-09 22:00:12.924Z71.16° E
6 mins2025-05-09 23:34:12.924Z290.454° WNW2025-05-09 23:37:12.924Z84.337° E42.096°2025-05-09 23:40:12.924Z103.835° ESE
4 mins2025-05-10 01:14:12.924Z245.606° WSW2025-05-10 01:15:12.924Z219.702° SW24.6°2025-05-10 01:18:12.924Z157.047° SSE
|